EW7216 Weather Reports


Display with metric or nautical units.
time (UTC)temp
F
wind
direction
speed
MPH
gust
MPH
rain 1hr
in
rain 24hr
in
rain mn
in
humidity
%
barometer
mb
20260508080543 69 118 0.0 2.0 0.00 0.00 0.00 61 1016.6
20260508075615 68 96 0.0 1.0 0.00 0.00 0.00 63 1016.5
20260508074605 67 139 1.0 3.0 0.00 0.00 0.00 65 1016.4
20260508073555 66 0.0 1.0 0.00 0.00 0.00 69 1016.4
20260508072545 65 141 1.0 6.0 0.00 0.00 0.00 71 1016.2
20260508071534 65 140 0.0 2.0 0.00 0.00 0.00 74 1016.2
20260508070524 64 0.0 2.0 0.00 0.00 0.00 76 1016.1
20260508065638 63 0.0 2.0 0.00 0.00 0.00 77 1016.1
20260508064606 63 143 0.0 1.0 0.00 0.00 0.00 76 1016.0
20260508063557 62 146 1.0 4.0 0.00 0.00 0.00 76 1016.0
20260508062546 62 147 3.0 6.0 0.00 0.00 0.00 77 1016.0
20260508061536 61 153 0.0 2.0 0.00 0.00 0.00 78 1015.9
20260508060526 61 131 0.0 1.0 0.00 0.00 0.00 78 1015.9
20260508055516 61 155 1.0 3.0 0.00 0.00 0.00 78 1015.8
20260508054607 61 157 1.0 2.0 0.00 0.00 0.00 78 1015.7
20260508053556 61 149 5.0 9.0 0.00 0.00 0.00 77 1015.7
20260508052606 61 128 2.0 8.0 0.00 0.00 0.00 76 1015.6
20260508051537 61 151 5.0 13.0 0.00 0.00 0.00 76 1015.5
20260508050526 61 157 4.0 9.0 0.00 0.00 0.00 75 1015.4
20260508045516 61 122 4.0 9.0 0.00 0.00 0.00 74 1015.2
20260508044607 62 156 1.0 8.0 0.00 0.00 0.00 73 1015.1
20260508043558 62 147 4.0 8.0 0.00 0.00 0.00 72 1014.8
20260508042547 62 150 4.0 8.0 0.00 0.00 0.00 69 1014.8
20260508041537 60 146 4.0 7.0 0.00 0.00 0.00 71 1014.8
20260508040547 60 143 1.0 2.0 0.00 0.00 0.00 76 1014.6
20260508035518 62 139 0.0 2.0 0.00 0.00 0.00 71 1014.5
20260508034609 62 0.0 0.0 0.00 0.00 0.00 68 1014.5
20260508033559 62 0.0 0.0 0.00 0.00 0.00 68 1014.5
20260508032548 62 0.0 0.0 0.00 0.00 0.00 68 1014.4
20260508031539 63 141 1.0 4.0 0.00 0.01 0.00 66 1014.5
20260508030528 62 155 1.0 3.0 0.00 0.01 0.00 70 1014.5
20260508025559 62 0.0 0.0 0.00 0.01 0.00 70 1014.5
20260508024609 62 0.0 1.0 0.00 0.02 0.00 68 1014.5
20260508023619 64 142 0.0 1.0 0.00 0.03 0.00 66 1014.4
20260508022549 63 153 0.0 2.0 0.00 0.04 0.00 68 1014.4
20260508021559 63 150 2.0 3.0 0.00 0.05 0.00 67 1014.5
20260508020529 62 0.0 0.0 0.00 0.06 0.00 67 1014.5
20260508015540 62 0.0 0.0 0.00 0.07 0.00 68 1014.7
20260508014610 63 0.0 0.0 0.00 0.08 0.00 68 1014.8
20260508013600 63 0.0 1.0 0.00 0.09 0.00 67 1014.9
20260508012550 63 0.0 0.0 0.00 0.12 0.00 67 1014.8
20260508011540 63 299 0.0 1.0 0.00 0.15 0.00 67 1014.9
20260508010530 63 0.0 0.0 0.00 0.16 0.00 67 1015.0
20260508005521 63 0.0 1.0 0.00 0.17 0.00 67 1015.0
20260508004631 62 0.0 0.0 0.00 0.17 0.00 69 1015.0
20260508003601 61 0.0 0.0 0.00 0.17 0.00 71 1015.1
20260508002551 61 0.0 0.0 0.00 0.18 0.00 72 1015.2
20260508001541 61 0.0 0.0 0.00 0.19 0.00 71 1015.3
20260508000531 61 0.0 0.0 0.00 0.20 0.00 71 1015.4
20260507235521 62 149 0.0 2.0 0.00 0.20 0.00 70 1015.4
20260507234612 62 149 1.0 3.0 0.00 0.20 0.00 70 1015.5
20260507233602 62 149 2.0 3.0 0.00 0.20 0.00 69 1015.6
20260507232552 62 150 2.0 3.0 0.00 0.20 0.00 68 1015.6
20260507231542 63 150 1.0 3.0 0.00 0.20 0.00 68 1015.7
20260507230532 63 160 2.0 3.0 0.00 0.20 0.00 66 1015.9
20260507225522 63 151 2.0 3.0 0.00 0.20 0.00 65 1016.1
20260507224613 64 150 1.0 2.0 0.00 0.21 0.00 66 1016.1
20260507223603 63 144 1.0 2.0 0.00 0.21 0.00 66 1016.3
20260507222553 62 0.0 0.0 0.00 0.21 0.00 68 1016.2
20260507221545 62 0.0 0.0 0.00 0.21 0.00 70 1016.3
20260507220533 61 0.0 0.0 0.00 0.21 0.00 76 1016.3
20260507215524 61 252 0.0 2.0 0.00 0.21 0.21 75 1016.5
20260507214615 61 0.0 0.0 0.00 0.21 0.21 73 1016.6
20260507213605 62 123 0.0 2.0 0.00 0.21 0.21 71 1016.6
20260507212555 62 0.0 1.0 0.00 0.21 0.21 68 1016.6
20260507211545 62 290 2.0 3.0 0.00 0.21 0.21 67 1016.6
20260507210535 62 326 2.0 3.0 0.00 0.21 0.21 66 1016.8
20260507205524 62 303 2.0 3.0 0.00 0.21 0.21 68 1016.7
20260507204615 62 319 2.0 3.0 0.00 0.21 0.21 67 1016.6
20260507203605 63 314 2.0 2.0 0.00 0.21 0.21 64 1016.7
20260507202615 63 305 2.0 3.0 0.00 0.21 0.21 62 1016.9
20260507201545 62 303 2.0 4.0 0.00 0.21 0.21 63 1016.9
20260507200536 62 309 2.0 2.0 0.00 0.21 0.21 69 1017.0
20260507195525 62 325 1.0 2.0 0.00 0.21 0.21 67 1017.0
20260507194618 62 297 2.0 3.0 0.00 0.21 0.21 67 1016.9
20260507193606 62 290 3.0 3.0 0.00 0.21 0.21 65 1017.0
20260507192555 62 292 3.0 4.0 0.00 0.21 0.21 68 1017.0
20260507191546 63 285 3.0 6.0 0.00 0.21 0.21 68 1016.9
20260507190536 62 313 3.0 6.0 0.00 0.21 0.21 67 1016.8
20260507185526 63 301 3.0 4.0 0.00 0.21 0.21 68 1016.9
20260507184516 64 278 4.0 7.0 0.00 0.21 0.21 62 1016.9
20260507183628 65 324 4.0 7.0 0.00 0.21 0.21 62 1016.9
20260507182557 64 327 4.0 8.0 0.00 0.21 0.21 63 1016.8
20260507181547 65 321 4.0 6.0 0.00 0.21 0.21 65 1016.8
20260507180558 65 287 5.0 8.0 0.00 0.21 0.21 64 1017.0
20260507175527 65 299 3.0 8.0 0.00 0.21 0.21 63 1016.9
20260507174517 66 310 3.0 4.0 0.00 0.22 0.21 63 1017.0
20260507173648 66 286 3.0 4.0 0.00 0.22 0.21 62 1016.9
20260507172558 66 284 3.0 4.0 0.00 0.22 0.21 61 1016.9
20260507171548 66 295 3.0 6.0 0.00 0.22 0.21 61 1016.9
20260507170558 67 280 3.0 6.0 0.00 0.22 0.21 61 1016.9
20260507165549 67 304 5.0 8.0 0.00 0.22 0.21 61 1016.8
20260507164519 67 267 4.0 7.0 0.00 0.22 0.21 62 1017.0
20260507163609 67 288 4.0 7.0 0.00 0.22 0.21 62 1016.8
20260507162559 67 326 3.0 6.0 0.00 0.22 0.21 63 1016.7
20260507161549 67 308 4.0 7.0 0.00 0.22 0.21 63 1016.8
20260507160540 68 326 4.0 7.0 0.00 0.22 0.21 63 1016.7
20260507155550 68 322 3.0 6.0 0.00 0.22 0.21 64 1016.8
20260507154519 68 316 4.0 7.0 0.00 0.22 0.21 64 1016.8
20260507153610 67 303 4.0 7.0 0.00 0.22 0.21 65 1016.9
20260507152600 68 291 4.0 8.0 0.00 0.22 0.21 64 1016.8
20260507151550 68 314 3.0 7.0 0.00 0.22 0.21 65 1017.0
20260507150540 68 310 4.0 7.0 0.00 0.22 0.21 66 1016.8
20260507145530 68 305 3.0 7.0 0.00 0.22 0.21 65 1016.9
20260507144520 68 298 2.0 4.0 0.00 0.22 0.21 66 1017.0
20260507143611 68 318 2.0 10.0 0.00 0.22 0.21 65 1017.0
20260507142601 68 301 5.0 10.0 0.00 0.22 0.21 67 1017.0
20260507141551 69 340 3.0 8.0 0.00 0.22 0.21 66 1017.3
20260507140602 68 320 2.0 4.0 0.00 0.22 0.21 66 1017.5
20260507135531 67 287 1.0 6.0 0.00 0.22 0.21 67 1017.8
20260507134521 68 296 2.0 3.0 0.00 0.22 0.21 67 1017.9
20260507133612 69 343 2.0 6.0 0.00 0.22 0.21 66 1018.1
20260507132622 70 109 1.0 3.0 0.00 0.22 0.21 60 1018.1
20260507131552 69 78 0.0 3.0 0.00 0.22 0.21 62 1018.1
20260507130542 69 312 0.0 3.0 0.00 0.22 0.21 61 1018.1
20260507125533 69 105 1.0 2.0 0.00 0.22 0.21 61 1018.2
20260507124522 68 344 2.0 4.0 0.00 0.22 0.21 64 1018.3
20260507123613 68 299 1.0 3.0 0.00 0.22 0.21 63 1018.4
20260507122603 70 61 0.0 1.0 0.00 0.22 0.21 61 1018.4
20260507121553 68 133 0.0 1.0 0.00 0.22 0.21 65 1018.6
20260507120543 67 293 1.0 6.0 0.00 0.22 0.21 69 1018.5
20260507115533 67 306 2.0 4.0 0.00 0.22 0.21 71 1018.6
20260507114523 67 338 1.0 3.0 0.00 0.22 0.21 71 1018.6
20260507113614 67 230 2.0 6.0 0.00 0.22 0.21 72 1018.8
20260507112604 66 345 2.0 6.0 0.00 0.22 0.21 73 1018.7
20260507111554 67 112 0.0 2.0 0.00 0.22 0.21 72 1018.9
20260507110545 65 91 1.0 3.0 0.00 0.22 0.21 75 1018.8
20260507105534 65 329 4.0 7.0 0.00 0.22 0.21 75 1018.9
20260507104524 65 290 4.0 6.0 0.00 0.22 0.21 75 1019.0
20260507103635 64 330 1.0 3.0 0.00 0.22 0.21 76 1019.0
20260507102605 65 288 2.0 4.0 0.00 0.22 0.21 75 1019.2
20260507101615 64 356 0.0 2.0 0.00 0.22 0.21 76 1019.3
20260507100545 63 295 3.0 6.0 0.00 0.22 0.21 77 1019.2
20260507095536 64 90 1.0 2.0 0.00 0.22 0.21 76 1019.2
20260507094546 64 300 3.0 4.0 0.00 0.22 0.21 76 1019.3
20260507093516 64 292 1.0 3.0 0.00 0.22 0.21 75 1019.2
20260507092606 65 121 0.0 1.0 0.00 0.22 0.21 74 1019.0
20260507091556 63 150 0.0 2.0 0.00 0.22 0.21 77 1019.1
20260507090606 61 5 1.0 3.0 0.00 0.22 0.21 79 1019.0
20260507085537 60 312 2.0 4.0 0.00 0.22 0.21 80 1019.0
20260507084527 60 302 3.0 6.0 0.00 0.22 0.21 80 1019.1
20260507083517 59 303 2.0 6.0 0.00 0.22 0.21 80 1019.1
20260507082608 59 297 2.0 4.0 0.00 0.22 0.21 80 1019.2
20260507081558 59 301 2.0 4.0 0.00 0.22 0.21 79 1019.3